[Iaude] MPEC G73: 2024 GW [a=1.54,e=0.40,i=3.3,H=25.6]
    mpec at cfa.harvard.edu 
    mpec at cfa.harvard.edu
       
    Fri Apr  5 21:17:36 EDT 2024
    
    
  
M.P.E.C. 2024-G73                                 Issued 2024 April 6, 01:16 UT
     The Minor Planet Electronic Circulars contain information on unusual
         minor planets, routine data on comets and natural satellites,
         and occasional editorial announcements.  They are published
    on behalf of Division F of the International Astronomical Union by the
          Minor Planet Center, Smithsonian Astrophysical Observatory,
                          Cambridge, MA 02138, U.S.A.
			  
             Prepared using the Tamkin Foundation Computer Network
                              MPC at CFA.HARVARD.EDU
            URL https://www.minorplanetcenter.net/    ISSN 1523-6714
                                    2024 GW                                     
Observations:
     K24G00W*1C2024 04 04.15944311 25 17.872-14 59 22.02         20.61GVEG073G96
     K24G00W 1C2024 04 04.16509811 25 16.201-15 00 03.20         21.19GVEG073G96
     K24G00W 1C2024 04 04.17074611 25 14.650-15 00 45.14         20.14GVEG073G96
     K24G00W 1C2024 04 04.17638911 25 12.976-15 01 26.29         20.41GVEG073G96
     K24G00W KC2024 04 04.21304511 25 02.269-15 05 55.32         20.88GVEG073I52
     K24G00W KC2024 04 04.21433011 25 01.877-15 06 04.03         20.45GVEG073I52
     K24G00W |C2024 04 05.08413011 21 14.990-16 56 03.80         20.7 GVEG073807
     K24G00W |C2024 04 05.08861011 21 13.500-16 56 41.10         20.4 GVEG073807
     K24G00W |C2024 04 05.09294211 21 12.050-16 57 17.00         20.6 GVEG073807
     K24G00W KC2024 04 05.20873711 20 38.850-17 15 54.50         20.00GVEG073I52
     K24G00W KC2024 04 05.21046811 20 38.250-17 16 09.00         20.39GVEG073I52
     K24G00W KC2024 04 05.21219111 20 37.660-17 16 24.00               VEG073I52
     K24G00W KC2024 04 05.21392111 20 37.050-17 16 38.30               VEG073I52
     K24G00W  C2024 04 05.21936511 20 34.621-17 17 27.37         20.1 GVEG073H01
     K24G00W  C2024 04 05.22645411 20 32.188-17 18 27.27         20.4 GVEG073H01
     K24G00W  C2024 04 05.23833511 20 28.100-17 20 07.74         20.5 GVEG073H01
     K24G00W  C2024 04 05.24157911 20 26.983-17 20 35.01         20.3 GVEG073H01
     K24G00W |C2024 04 06.00573711 16 39.070-19 11 59.50         20.5 GVEG073807
     K24G00W |C2024 04 06.00903011 16 37.820-19 12 31.60         20.2 GVEG073807
     K24G00W |C2024 04 06.01234011 16 36.550-19 13 03.30         20.5 GVEG073807
Observer details:
807 Cerro Tololo Observatory, La Serena.  Observers T. Linder, R. Holmes.
    0.61-m f/6.8 Ritchey-Chretien + CCD.
G96 Mt. Lemmon Survey.  Observer G. J. Leonard.  Measurers T. Beuden, V. F.
    Carvajal, D. Fay, J. B. Fazekas, D. C. Fuls, A. R. Gibbs, A. D. Grauer, H.
    Groeller, J. K. Hogan, R. A. Kowalski, S. M. Larson, G. J. Leonard, D.
    Rankin, R. L. Seaman, F. C. Shelly, K. W. Wierzchos.  1.5-m reflector +
    10K CCD.
H01 Magdalena Ridge Observatory, Socorro.  Observers W. H. Ryan, E. V. Ryan.
    Measurer W. H. Ryan.  2.4-m f/8.9 Ritchey-Chretien + CCD.
I52 Steward Observatory, Mt. Lemmon Station.  Observers R. A. Kowalski, H.
    Groeller.  Measurers T. Beuden, V. F. Carvajal, D. Fay, J. B. Fazekas, D.
    C. Fuls, A. R. Gibbs, A. D. Grauer, H. Groeller, J. K. Hogan, R. A.
    Kowalski, S. M. Larson, G. J. Leonard, D. Rankin, R. L. Seaman, F. C.
    Shelly, K. W. Wierzchos.  1.0-m prime focus + CCD.
Orbital elements:
2024 GW                                                  Earth MOID = 0.0285 AU
Epoch 2024 Mar. 31.0 TT = JDT 2460400.5                 MPC                     
M 333.88646              (2000.0)            P               Q                  
n   0.51717786     Peri.  252.37117     -0.36262837     +0.93192656             
a   1.5371259      Node   356.36087     -0.83153824     -0.32534416             
e   0.3955663      Incl.    3.32520     -0.42076694     -0.16020007             
P   1.91           H   25.68          G   0.15           U   7                  
Residuals in seconds of arc
240404 G96  0.0   0.1+    240405 807  0.0   0.0     240405 H01  0.1+  0.0
240404 G96  0.7-  0.4+    240405 807  0.1+  0.2+    240405 H01  0.1+  0.0
240404 G96  0.4+  0.2-    240405 I52  0.0   0.2-    240405 H01  0.1+  0.1+
240404 G96  0.2-  0.0     240405 I52  0.1-  0.0     240406 807  0.2+  0.1-
240404 I52  0.3+  0.5-    240405 I52  0.0   0.4-    240406 807  0.0   0.2-
240404 I52  0.1+  0.2+    240405 I52  0.3-  0.0     240406 807  0.3-  0.2+
240405 807  0.3-  0.0     240405 H01  0.0   0.1-
Ephemeris:
2024 GW                  a,e,i = 1.54, 0.40, 3                   q = 0.9291
Date    TT    R. A. (2000) Decl.     Delta      r    Elong.  Phase     V
2024 03 07    12 01 05.9 +02 25 40   0.2243  1.2120   167.1    10.6    23.5
...
2024 03 22    11 52 13.9 -01 49 43   0.1300  1.1261   176.4     3.1    21.8
...
2024 03 30    11 40 16.0 -07 28 50   0.08696 1.0832   165.9    12.9    21.3
...
2024 04 05    11 21 36.0 -16 45 03   0.05807 1.0531   154.4    24.2    20.7
2024 04 06    11 16 34.3 -19 11 41   0.05365 1.0483   151.7    26.9    20.6
2024 04 07    11 10 32.8 -22 02 51   0.04939 1.0435   148.7    29.9    20.5
...
2024 04 13    09 32 50.6 -52 11 58   0.03026 1.0164   116.2    62.2    20.3
...
2024 04 21    01 46 57.5 -48 04 44   0.04133 0.9848    59.9   118.0    23.4
...
2024 05 06    00 37 38.8 -21 46 26   0.1096  0.9431    50.6   124.3    25.9
A. U. Tomatic                (C) Copyright 2024 MPC           M.P.E.C. 2024-G73
    
    
More information about the Iaude
mailing list